NPG222 UKBB-UKLL

Flight info

Callsign NPG222
Flight time 0h 56m
Altitude 32000
Route KAFEL P27 LAPVA/K0702F260 P27 GORKU
Aircraft B738/M-SDE2E3FGHIRWXY/LB1

Departure

Time 2026-05-01 14:05
Airport Boryspil International Airport (UKBB)

Arrival

Time 2026-05-01 15:01
Airport Lviv International Airport (UKLL)
Time Latitude Longitude Altitude Speed Heading
2026-05-01 13:29 50.33673 30.89561 416 ft 0 kts 273°
2026-05-01 13:59 50.33674 30.89541 409 ft 4 kts 272°
2026-05-01 13:59 50.33653 30.89480 411 ft 8 kts 212°
2026-05-01 13:59 50.33593 30.89458 414 ft 9 kts 191°
2026-05-01 13:59 50.33531 30.89441 414 ft 9 kts 186°
2026-05-01 14:00 50.33523 30.89442 414 ft 0 kts 169°
2026-05-01 14:00 50.33517 30.89459 412 ft 4 kts 115°
2026-05-01 14:00 50.33509 30.89575 414 ft 17 kts 93°
2026-05-01 14:00 50.33503 30.89765 414 ft 17 kts 92°
2026-05-01 14:01 50.33498 30.89952 414 ft 17 kts 92°
2026-05-01 14:01 50.33465 30.90115 410 ft 16 kts 149°
2026-05-01 14:01 50.33355 30.90126 412 ft 16 kts 182°
2026-05-01 14:01 50.33249 30.90117 412 ft 15 kts 182°
2026-05-01 14:02 50.33147 30.90109 408 ft 14 kts 182°
2026-05-01 14:02 50.33050 30.90103 415 ft 14 kts 182°
2026-05-01 14:02 50.32956 30.90096 409 ft 13 kts 182°
2026-05-01 14:02 50.32858 30.90088 412 ft 16 kts 182°
2026-05-01 14:03 50.32716 30.90078 408 ft 25 kts 184°
2026-05-01 14:03 50.32538 30.90067 410 ft 25 kts 174°
2026-05-01 14:03 50.32446 30.90250 410 ft 24 kts 75°
2026-05-01 14:03 50.32565 30.90391 417 ft 12 kts
2026-05-01 14:04 50.32567 30.90391 419 ft 0 kts
2026-05-01 14:04 50.32733 30.90403 420 ft 67 kts
2026-05-01 14:04 50.33192 30.90436 414 ft 127 kts
2026-05-01 14:05 50.34736 30.90530 942 ft 193 kts
2026-05-01 14:05 50.36127 30.90663 1928 ft 197 kts
2026-05-01 14:05 50.37421 30.90788 3344 ft 179 kts
2026-05-01 14:05 50.38621 30.90867 4488 ft 172 kts
2026-05-01 14:06 50.39910 30.90986 4928 ft 200 kts
2026-05-01 14:06 50.41394 30.91111 5184 ft 225 kts
2026-05-01 14:06 50.42998 30.91227 5739 ft 234 kts
2026-05-01 14:06 50.44643 30.91336 6441 ft 238 kts
2026-05-01 14:07 50.46304 30.91438 7199 ft 239 kts
2026-05-01 14:07 50.47977 30.91538 7921 ft 242 kts
2026-05-01 14:07 50.49665 30.91637 8654 ft 243 kts
2026-05-01 14:08 50.52773 30.89907 10091 ft 252 kts 313°
2026-05-01 14:08 50.53593 30.87456 10701 ft 261 kts 285°
2026-05-01 14:08 50.53542 30.84554 11257 ft 275 kts 255°
2026-05-01 14:08 50.52613 30.81872 11828 ft 283 kts 243°
2026-05-01 14:09 50.51867 30.79013 12344 ft 284 kts 262°
2026-05-01 14:09 50.51770 30.75943 12914 ft 280 kts 284°
2026-05-01 14:09 50.52184 30.72967 13524 ft 280 kts 290°
2026-05-01 14:09 50.52660 30.69979 14077 ft 284 kts 290°
2026-05-01 14:10 50.53179 30.66974 14586 ft 290 kts 284°
2026-05-01 14:10 50.52940 30.63745 15071 ft 309 kts 252°
2026-05-01 14:10 50.51934 30.60727 15610 ft 315 kts 242°
2026-05-01 14:10 50.50755 30.57790 16090 ft 321 kts 241°
2026-05-01 14:11 50.49569 30.54797 16574 ft 324 kts 242°
2026-05-01 14:11 50.47288 30.48609 17602 ft 331 kts 245°
2026-05-01 14:11 50.46175 30.45430 18089 ft 334 kts 245°
2026-05-01 14:12 50.45065 30.42206 18587 ft 337 kts 245°
2026-05-01 14:12 50.43947 30.38946 19007 ft 341 kts 245°
2026-05-01 14:12 50.42817 30.35654 19427 ft 344 kts 245°
2026-05-01 14:12 50.41807 30.32263 19824 ft 342 kts 259°
2026-05-01 14:13 50.41397 30.28629 20256 ft 336 kts 273°
2026-05-01 14:13 50.41369 30.26220 20528 ft 332 kts 281°
2026-05-01 14:13 50.41968 30.21569 21077 ft 323 kts 296°
2026-05-01 14:13 50.42643 30.18200 21499 ft 325 kts 297°
2026-05-01 14:14 50.43344 30.14826 21920 ft 327 kts 298°
2026-05-01 14:14 50.44052 30.11418 22327 ft 329 kts 298°
2026-05-01 14:14 50.44759 30.07989 22750 ft 331 kts 298°
2026-05-01 14:14 50.45465 30.04533 23169 ft 334 kts 298°
2026-05-01 14:15 50.46171 30.01051 23565 ft 336 kts 298°
2026-05-01 14:15 50.46878 29.97545 23938 ft 338 kts 298°
2026-05-01 14:15 50.47586 29.94017 24258 ft 340 kts 298°
2026-05-01 14:15 50.48296 29.90465 24587 ft 341 kts 298°
2026-05-01 14:16 50.49008 29.86900 24893 ft 343 kts 298°
2026-05-01 14:16 50.49721 29.83318 25204 ft 345 kts 298°
2026-05-01 14:16 50.50436 29.79720 25503 ft 347 kts 299°
2026-05-01 14:16 50.51157 29.76084 25804 ft 349 kts 299°
2026-05-01 14:17 50.51878 29.72441 26093 ft 350 kts 299°
2026-05-01 14:17 50.52602 29.68774 26372 ft 352 kts 299°
2026-05-01 14:17 50.53329 29.65086 26659 ft 354 kts 299°
2026-05-01 14:17 50.54060 29.61376 26930 ft 356 kts 299°
2026-05-01 14:18 50.54792 29.57646 27195 ft 358 kts 299°
2026-05-01 14:18 50.55529 29.53888 27458 ft 360 kts 300°
2026-05-01 14:18 50.56257 29.50162 27731 ft 362 kts 300°
2026-05-01 14:18 50.56756 29.47601 27899 ft 363 kts 300°
2026-05-01 14:19 50.57743 29.42555 28220 ft 366 kts 300°
2026-05-01 14:19 50.58491 29.38714 28457 ft 368 kts 300°
2026-05-01 14:19 50.59238 29.34862 28695 ft 370 kts 300°
2026-05-01 14:19 50.59739 29.30794 28900 ft 389 kts 287°
2026-05-01 14:20 50.59764 29.26457 29114 ft 405 kts 275°
2026-05-01 14:20 50.58164 29.17669 29495 ft 429 kts 255°
2026-05-01 14:20 50.57023 29.13308 29670 ft 432 kts 255°
2026-05-01 14:21 50.55866 29.08934 29835 ft 435 kts 255°
2026-05-01 14:21 50.55085 29.05967 29974 ft 436 kts 255°
2026-05-01 14:21 50.53933 29.01553 30174 ft 437 kts 255°
2026-05-01 14:22 50.51656 28.92734 30539 ft 439 kts 255°
2026-05-01 14:22 50.50514 28.88299 30738 ft 438 kts 255°
2026-05-01 14:22 50.49370 28.83865 30956 ft 438 kts 255°
2026-05-01 14:22 50.48228 28.79438 31145 ft 437 kts 255°
2026-05-01 14:23 50.47082 28.75010 31321 ft 438 kts 255°
2026-05-01 14:23 50.45935 28.70579 31488 ft 438 kts 256°
2026-05-01 14:23 50.44260 28.61358 31605 ft 446 kts 265°
2026-05-01 14:24 50.43546 28.56564 31610 ft 457 kts 265°
2026-05-01 14:24 50.42823 28.51682 31574 ft 459 kts 264°
2026-05-01 14:24 50.42088 28.46833 31173 ft 457 kts 264°
2026-05-01 14:24 50.41339 28.41977 30752 ft 456 kts 264°
2026-05-01 14:25 50.40581 28.37135 30080 ft 460 kts 264°
2026-05-01 14:25 50.39810 28.32216 29160 ft 468 kts 264°
2026-05-01 14:25 50.39023 28.27225 28300 ft 474 kts 264°
2026-05-01 14:25 50.38225 28.22194 27506 ft 478 kts 263°
2026-05-01 14:26 50.37422 28.17189 27185 ft 469 kts 263°
2026-05-01 14:26 50.35838 28.07343 26311 ft 469 kts 263°
2026-05-01 14:26 50.35038 28.02320 26305 ft 482 kts 263°
2026-05-01 14:27 50.34224 27.97221 26289 ft 494 kts 263°
2026-05-01 14:27 50.33377 27.91986 26259 ft 493 kts 262°
2026-05-01 14:27 50.32539 27.86886 26247 ft 475 kts 263°
2026-05-01 14:28 50.30940 27.77240 26260 ft 442 kts 263°
2026-05-01 14:28 50.30151 27.72667 26252 ft 428 kts 263°
2026-05-01 14:28 50.29380 27.68241 26260 ft 415 kts 263°
2026-05-01 14:28 50.28627 27.63903 26288 ft 415 kts 263°
2026-05-01 14:29 50.27871 27.59483 26294 ft 427 kts 263°
2026-05-01 14:29 50.27097 27.54957 26298 ft 435 kts 263°
2026-05-01 14:30 50.24719 27.41318 26268 ft 430 kts 262°
2026-05-01 14:30 50.23929 27.36822 26268 ft 429 kts 262°
2026-05-01 14:30 50.23136 27.32285 26293 ft 440 kts 262°
2026-05-01 14:31 50.21478 27.22806 26295 ft 465 kts 262°
2026-05-01 14:31 50.20605 27.17873 26295 ft 476 kts 261°
2026-05-01 14:31 50.19711 27.12841 26290 ft 486 kts 261°
2026-05-01 14:31 50.18797 27.07710 26289 ft 494 kts 261°
2026-05-01 14:32 50.17802 27.02550 26276 ft 502 kts 256°
2026-05-01 14:32 50.16529 26.97413 26293 ft 512 kts 253°
2026-05-01 14:32 50.15153 26.92311 26287 ft 521 kts 252°
2026-05-01 14:32 50.13704 26.87089 26288 ft 528 kts 252°
2026-05-01 14:33 50.12244 26.81822 26281 ft 532 kts 252°
2026-05-01 14:33 50.10799 26.76557 26255 ft 520 kts 252°
2026-05-01 14:33 50.09413 26.71469 26259 ft 499 kts 252°
2026-05-01 14:33 50.08091 26.66576 26262 ft 481 kts 253°
2026-05-01 14:34 50.06821 26.61856 26256 ft 464 kts 253°
2026-05-01 14:34 50.05599 26.57303 26266 ft 448 kts 253°
2026-05-01 14:34 50.04416 26.52899 26258 ft 434 kts 253°
2026-05-01 14:34 50.03260 26.48597 26282 ft 434 kts 254°
2026-05-01 14:35 50.02081 26.44194 26302 ft 448 kts 253°
2026-05-01 14:35 50.00861 26.39671 26289 ft 458 kts 253°
2026-05-01 14:35 49.99617 26.35113 26280 ft 457 kts 252°
2026-05-01 14:35 49.98311 26.30607 26271 ft 456 kts 251°
2026-05-01 14:36 49.96967 26.26157 26277 ft 455 kts 250°
2026-05-01 14:36 49.95614 26.21726 26274 ft 453 kts 250°
2026-05-01 14:36 49.94276 26.17328 26263 ft 445 kts 250°
2026-05-01 14:36 49.92978 26.13045 26264 ft 432 kts 251°
2026-05-01 14:37 49.91710 26.08830 26276 ft 428 kts 251°
2026-05-01 14:37 49.90457 26.04663 26281 ft 427 kts 251°
2026-05-01 14:37 49.89197 26.00476 26117 ft 429 kts 251°
2026-05-01 14:37 49.87938 25.96298 25885 ft 425 kts 251°
2026-05-01 14:38 49.86705 25.92218 25558 ft 423 kts 251°
2026-05-01 14:38 49.85459 25.88097 25215 ft 421 kts 251°
2026-05-01 14:38 49.84220 25.84005 24878 ft 418 kts 251°
2026-05-01 14:38 49.82987 25.79935 24535 ft 416 kts 251°
2026-05-01 14:39 49.81759 25.75885 24180 ft 414 kts 250°
2026-05-01 14:39 49.80535 25.71862 23827 ft 413 kts 250°
2026-05-01 14:39 49.79313 25.67858 23449 ft 410 kts 250°
2026-05-01 14:39 49.78095 25.63891 23117 ft 406 kts 250°
2026-05-01 14:40 49.76887 25.59966 22758 ft 403 kts 250°
2026-05-01 14:40 49.75684 25.56064 22409 ft 400 kts 250°
2026-05-01 14:40 49.74491 25.52194 22058 ft 397 kts 250°
2026-05-01 14:40 49.73304 25.48347 21710 ft 394 kts 250°
2026-05-01 14:41 49.72127 25.44539 21376 ft 392 kts 250°
2026-05-01 14:41 49.70956 25.40753 21035 ft 389 kts 250°
2026-05-01 14:41 49.69791 25.36994 20695 ft 387 kts 249°
2026-05-01 14:41 49.68631 25.33256 20357 ft 385 kts 249°
2026-05-01 14:42 49.67479 25.29548 20026 ft 382 kts 249°
2026-05-01 14:42 49.66330 25.25854 19693 ft 380 kts 249°
2026-05-01 14:42 49.65188 25.22188 19361 ft 378 kts 249°
2026-05-01 14:42 49.64049 25.18537 19032 ft 376 kts 249°
2026-05-01 14:43 49.62917 25.14918 18711 ft 374 kts 249°
2026-05-01 14:43 49.61798 25.11307 18349 ft 371 kts 252°
2026-05-01 14:43 49.61233 25.07547 18009 ft 353 kts 275°
2026-05-01 14:43 49.61463 25.03904 17769 ft 331 kts 294°
2026-05-01 14:44 49.62229 25.00642 17474 ft 319 kts 301°
2026-05-01 14:44 49.63996 24.94459 16845 ft 312 kts 302°
2026-05-01 14:44 49.64881 24.91415 16538 ft 311 kts 302°
2026-05-01 14:45 49.65756 24.88377 16215 ft 309 kts 302°
2026-05-01 14:45 49.67471 24.82338 15592 ft 305 kts 301°
2026-05-01 14:45 49.68316 24.79337 15289 ft 303 kts 301°
2026-05-01 14:46 49.69142 24.76389 14995 ft 302 kts 300°
2026-05-01 14:46 49.70808 24.70424 14382 ft 299 kts 300°
2026-05-01 14:46 49.71629 24.67473 14072 ft 298 kts 299°
2026-05-01 14:47 49.72436 24.64568 13733 ft 297 kts 299°
2026-05-01 14:47 49.73249 24.61638 13413 ft 295 kts 299°
2026-05-01 14:47 49.74056 24.58726 13104 ft 293 kts 299°
2026-05-01 14:48 49.75646 24.52975 12510 ft 289 kts 299°
2026-05-01 14:48 49.76433 24.50122 12213 ft 288 kts 299°
2026-05-01 14:48 49.77992 24.44466 11622 ft 284 kts 298°
2026-05-01 14:49 49.79507 24.38950 11309 ft 271 kts 299°
2026-05-01 14:49 49.80937 24.33727 11076 ft 256 kts 299°
2026-05-01 14:50 49.81938 24.30472 10869 ft 242 kts 315°
2026-05-01 14:50 49.84908 24.25330 9901 ft 257 kts 295°
2026-05-01 14:51 49.85098 24.22553 9632 ft 267 kts 264°
2026-05-01 14:51 49.82995 24.17806 9064 ft 276 kts 216°
2026-05-01 14:52 49.79348 24.17100 8519 ft 270 kts 156°
2026-05-01 14:52 49.77773 24.18582 8259 ft 262 kts 134°
2026-05-01 14:52 49.75175 24.22483 7728 ft 259 kts 131°
2026-05-01 14:53 49.73891 24.24439 7473 ft 259 kts 132°
2026-05-01 14:53 49.72602 24.26378 7220 ft 258 kts 133°
2026-05-01 14:53 49.71310 24.28310 6960 ft 258 kts 133°
2026-05-01 14:53 49.70018 24.30237 6678 ft 259 kts 133°
2026-05-01 14:54 49.68718 24.32152 6419 ft 259 kts 138°
2026-05-01 14:54 49.67113 24.33400 6121 ft 261 kts 169°
2026-05-01 14:54 49.65335 24.33228 5887 ft 257 kts 201°
2026-05-01 14:54 49.63841 24.31799 5634 ft 251 kts 225°
2026-05-01 14:55 49.62633 24.29905 5412 ft 244 kts 233°
2026-05-01 14:55 49.61936 24.27666 5144 ft 230 kts 263°
2026-05-01 14:55 49.62023 24.25291 4909 ft 218 kts 288°
2026-05-01 14:55 49.62684 24.23253 4652 ft 209 kts 310°
2026-05-01 14:56 49.63664 24.21652 4442 ft 202 kts 317°
2026-05-01 14:56 49.64686 24.20196 4214 ft 197 kts 320°
2026-05-01 14:56 49.65711 24.18817 3991 ft 194 kts 318°
2026-05-01 14:56 49.66693 24.17405 3783 ft 192 kts 317°
2026-05-01 14:57 49.67651 24.15974 3575 ft 191 kts 317°
2026-05-01 14:57 49.69533 24.13131 3192 ft 191 kts 316°
2026-05-01 14:57 49.70484 24.11688 2992 ft 190 kts 316°
2026-05-01 14:58 49.71421 24.10272 2957 ft 186 kts 316°
2026-05-01 14:58 49.72327 24.08902 2940 ft 178 kts 317°
2026-05-01 14:58 49.73171 24.07623 2932 ft 160 kts 316°
2026-05-01 14:58 49.73908 24.06505 2859 ft 141 kts 316°
2026-05-01 14:59 49.74617 24.05440 2645 ft 142 kts 317°
2026-05-01 14:59 49.75310 24.04391 2454 ft 137 kts 317°
2026-05-01 14:59 49.76001 24.03343 2267 ft 141 kts 317°
2026-05-01 14:59 49.76703 24.02286 2074 ft 140 kts 317°
2026-05-01 15:00 49.78082 24.00197 1648 ft 140 kts 316°
2026-05-01 15:00 49.78779 23.99139 1434 ft 141 kts 317°
2026-05-01 15:00 49.79476 23.98086 1255 ft 137 kts 317°
2026-05-01 15:01 49.80168 23.97046 1089 ft 140 kts 317°
2026-05-01 15:01 49.80787 23.96120 1064 ft 98 kts 315°
2026-05-01 15:01 49.81112 23.95631 1064 ft 33 kts 316°
2026-05-01 15:01 49.81211 23.95552 1065 ft 9 kts 22°
2026-05-01 15:02 49.81263 23.95611 1065 ft 9 kts 22°
2026-05-01 15:02 49.81283 23.95614 1065 ft 9 kts 355°
2026-05-01 15:02 49.81365 23.95524 1065 ft 9 kts 328°
2026-05-01 15:02 49.81418 23.95483 1065 ft 8 kts 335°
2026-05-01 15:03 49.81468 23.95439 1065 ft 8 kts 318°
2026-05-01 15:03 49.81509 23.95379 1066 ft 8 kts 316°
2026-05-01 15:03 49.81549 23.95318 1065 ft 8 kts 315°
2026-05-01 15:03 49.81591 23.95255 1065 ft 9 kts 316°
2026-05-01 15:04 49.81622 23.95207 1065 ft 10 kts 314°
2026-05-01 15:04 49.81676 23.95127 1065 ft 11 kts 316°
2026-05-01 15:04 49.81738 23.95108 1067 ft 11 kts 62°
2026-05-01 15:04 49.81762 23.95196 1066 ft 7 kts 67°
2026-05-01 15:05 49.81744 23.95259 1066 ft 7 kts 144°
2026-05-01 15:05 49.81726 23.95272 1065 ft 0 kts 156°
2026-05-01 15:05 49.81725 23.95273 1065 ft 0 kts 156°